Location: Ahausen
(50.4985°N, 8.2722°E)
Time: 04:42:52
(UTC+00:00)

YUBILEINY - Pass Details

Date: 05 July 2022
Orbit: 1478 x 1509 km, 82.5° (Epoch: 17 August)

Event Time Altitude Azimuth Distance (km) Brightness Sun altitude
Rises 02:31:32 0° 349° (N) 4,655 ? -6.6°
Reaches altitude 10° 02:34:34 10° 354° (N) 3,667 ? -6.3°
Maximum altitude 02:43:13 56° 72° (ENE) 1,741 ? -5.4°
Drops below altitude 10° 02:51:45 10° 149° (SSE) 3,625 ? -4.4°
Sets 02:54:42 0° 154° (SSE) 4,597 ? -4.1°
